Weather History for KGNA - April, 2013

Change the Weather History Date:

Friday, April 12, 2013

  Actual Average (KCKC) Record (KCKC)
Temperature  
Mean Temperature 30 °F -  
Max Temperature 34 °F 42 °F 66 °F (1998)
Min Temperature 27 °F 25 °F 12 °F (1997)
Degree Days  
Heating Degree Days 34    
Moisture  
Dew Point 22 °F    
Average Humidity 74    
Maximum Humidity 85    
Minimum Humidity 54    
Precipitation  
Precipitation 0.18 in - - ()
Sea Level Pressure  
Sea Level Pressure 29.87 in    
Wind  
Wind Speed 14 mph (NE)    
Max Wind Speed 20 mph    
Max Gust Speed 34 mph    
Averages and records for this station are not official NWS values.
T = Trace of Precipitation, MM = Missing Value Source: NWS Daily Summary

Daily Weather History Graph

Daily Weather History Graph

Search for Another Location

Airport or City:

Trip Planner

Search our weather history database for the weather conditions in past years. The results will help you decide how hot, cold, wet, or windy it might be!

Date:

Astronomy

Apr. 12, 2013 Rise Set
Actual Time 6:17 AM CDT 7:47 PM CDT
Civil Twilight 5:45 AM CDT 8:19 PM CDT
Nautical Twilight 5:06 AM CDT 8:58 PM CDT
Astronomical Twilight 4:24 AM CDT 9:41 PM CDT
Moon 7:18 AM CDT (4/12) 10:29 PM CDT (4/12)
Length of Visible Light 14h 34m
Length of Day
13h 29m
Waxing Crescent, 5% of the Moon is Illuminated
Apr 12
Waxing Crescent
Apr 18
First Quarter
Apr 25
Full
May 2
Last Quarter
May 9
New

Hourly Weather History & Observations

Time (CDT) Temp. Windchill Dew Point Humidity Pressure Visibility Wind Dir Wind Speed Gust Speed Precip Events Conditions
12:56 AM 34.0 °F 22.7 °F 19.0 °F 54% 29.95 in - ENE 19.6 mph 34.5 mph N/A   Unknown
1:56 AM 32.0 °F 20.1 °F 21.9 °F 66% 29.95 in - NE 19.6 mph 32.2 mph N/A   Unknown
2:56 AM 30.0 °F 21.7 °F 25.0 °F 82% 29.92 in - NE 9.2 mph 23.0 mph 0.01 in   Unknown
3:56 AM 30.0 °F 19.1 °F 24.1 °F 79% 29.90 in - NE 15.0 mph 23.0 mph 0.02 in   Unknown
4:56 AM 28.9 °F 17.3 °F 25.0 °F 85% 29.89 in - NE 16.1 mph 26.5 mph 0.05 in   Unknown
5:56 AM 28.9 °F 17.3 °F 23.0 °F 78% 29.87 in - NE 16.1 mph 21.9 mph 0.04 in   Unknown
6:56 AM 28.0 °F 16.1 °F 21.9 °F 78% 29.86 in - NE 16.1 mph 25.3 mph N/A   Unknown
7:56 AM 28.0 °F 17.5 °F 21.0 °F 75% 29.86 in - NE 12.7 mph 20.7 mph 0.01 in   Unknown
8:56 AM 28.0 °F 16.1 °F 19.9 °F 72% 29.86 in - NE 16.1 mph 23.0 mph N/A   Unknown
9:56 AM 28.0 °F 16.5 °F 21.0 °F 75% 29.85 in - NE 15.0 mph 25.3 mph N/A   Unknown
10:56 AM 28.9 °F 20.4 °F 19.9 °F 69% 29.86 in - NE 9.2 mph 21.9 mph N/A   Unknown
11:56 AM 30.0 °F 20.0 °F 21.0 °F 69% 29.85 in - NE 12.7 mph 20.7 mph 0.01 in   Unknown
12:56 PM 28.9 °F 18.2 °F 21.9 °F 75% 29.85 in - NE 13.8 mph 23.0 mph N/A   Unknown
1:56 PM 30.0 °F 20.0 °F 23.0 °F 75% 29.84 in - NE 12.7 mph 20.7 mph 0.01 in   Unknown
2:56 PM 30.0 °F 21.7 °F 21.9 °F 72% 29.85 in - NE 9.2 mph 18.4 mph N/A   Unknown
3:56 PM 30.0 °F 20.0 °F 21.9 °F 72% 29.85 in - NE 12.7 mph 17.3 mph 0.01 in   Unknown
4:56 PM 28.9 °F 21.1 °F 24.1 °F 82% 29.87 in - NE 8.1 mph - N/A   Unknown
5:56 PM 28.9 °F 21.9 °F 21.0 °F 72% 29.88 in - NE 6.9 mph - 0.01 in   Unknown
6:56 PM 28.0 °F 22.8 °F 21.0 °F 75% 29.88 in - Variable 4.6 mph - N/A   Unknown
7:56 PM 28.0 °F 20.8 °F 21.0 °F 75% 29.87 in - North 6.9 mph - 0.01 in   Unknown
8:56 PM 27.0 °F 19.5 °F 19.0 °F 72% 29.87 in - Variable 6.9 mph 18.4 mph N/A   Unknown
9:56 PM 28.0 °F 22.8 °F 19.0 °F 69% 29.86 in - North 4.6 mph 18.4 mph N/A   Unknown
10:56 PM 28.0 °F 22.8 °F 19.9 °F 72% 29.86 in - NE 4.6 mph - N/A   Unknown
11:56 PM 28.0 °F 20.8 °F 21.0 °F 75% 29.84 in - North 6.9 mph - N/A   Unknown